Year,Month,Day,Hour,Minute,Value (Times are PST for temperature in C)
2010,08,15,00,00,23.20
2010,08,15,00,01,23.20
2010,08,15,00,02,23.20
2010,08,15,00,03,23.20
2010,08,15,00,04,23.20
2010,08,15,00,05,23.20
2010,08,15,00,06,23.20
2010,08,15,00,07,23.20
2010,08,15,00,08,23.20
2010,08,15,00,09,23.20
2010,08,15,00,10,23.20
2010,08,15,00,11,23.20
2010,08,15,00,12,23.20
2010,08,15,00,13,23.10
2010,08,15,00,14,23.10
2010,08,15,00,15,23.10
2010,08,15,00,16,23.00
2010,08,15,00,17,23.00
2010,08,15,00,18,23.00
2010,08,15,00,19,23.00
2010,08,15,00,20,22.90
2010,08,15,00,21,22.90
2010,08,15,00,22,22.90
2010,08,15,00,23,22.90
2010,08,15,00,24,22.90
2010,08,15,00,25,22.90
2010,08,15,00,26,22.90
2010,08,15,00,27,22.90
2010,08,15,00,28,22.80
2010,08,15,00,29,22.80
2010,08,15,00,30,22.80
2010,08,15,00,31,22.80
2010,08,15,00,32,22.80
2010,08,15,00,33,22.70
2010,08,15,00,34,22.70
2010,08,15,00,35,22.70
2010,08,15,00,36,22.70
2010,08,15,00,37,22.70
2010,08,15,00,38,22.70
2010,08,15,00,39,22.70
2010,08,15,00,40,22.70
2010,08,15,00,41,22.70
2010,08,15,00,42,22.70
2010,08,15,00,43,22.70
2010,08,15,00,44,22.80
2010,08,15,00,45,22.80
2010,08,15,00,46,22.80
2010,08,15,00,47,22.80
2010,08,15,00,48,22.80
2010,08,15,00,49,22.80
2010,08,15,00,50,22.80
2010,08,15,00,51,22.80
2010,08,15,00,52,22.80
2010,08,15,00,53,22.80
2010,08,15,00,54,22.80
2010,08,15,00,55,22.80
2010,08,15,00,56,22.80
2010,08,15,00,57,22.80
2010,08,15,00,58,22.80
2010,08,15,00,59,22.80
2010,08,15,01,00,22.80
2010,08,15,01,01,22.80
2010,08,15,01,02,22.80
2010,08,15,01,03,22.80
2010,08,15,01,04,22.90
2010,08,15,01,05,22.90
2010,08,15,01,06,22.90
2010,08,15,01,07,22.90
2010,08,15,01,08,22.90
2010,08,15,01,09,22.90
2010,08,15,01,10,22.90
2010,08,15,01,11,22.90
2010,08,15,01,12,22.90
2010,08,15,01,13,22.90
2010,08,15,01,14,22.90
2010,08,15,01,15,22.90
2010,08,15,01,16,22.80
2010,08,15,01,17,22.80
2010,08,15,01,18,22.80
2010,08,15,01,19,22.80
2010,08,15,01,20,22.80
2010,08,15,01,21,22.80
2010,08,15,01,22,22.70
2010,08,15,01,23,22.70
2010,08,15,01,24,22.70
2010,08,15,01,25,22.60
2010,08,15,01,26,22.60
2010,08,15,01,27,22.60
2010,08,15,01,28,22.50
2010,08,15,01,29,22.50
2010,08,15,01,30,22.40
2010,08,15,01,31,22.40
2010,08,15,01,32,22.40
2010,08,15,01,33,22.40
2010,08,15,01,34,22.30
2010,08,15,01,35,22.30
2010,08,15,01,36,22.30
2010,08,15,01,37,22.30
2010,08,15,01,38,22.30
2010,08,15,01,39,22.30
2010,08,15,01,40,22.20
2010,08,15,01,41,22.20
2010,08,15,01,42,22.20
2010,08,15,01,43,22.20
2010,08,15,01,44,22.20
2010,08,15,01,45,22.20
2010,08,15,01,46,22.10
2010,08,15,01,47,22.10
2010,08,15,01,48,22.10
2010,08,15,01,49,22.10
2010,08,15,01,50,22.00
2010,08,15,01,51,21.90
2010,08,15,01,52,21.80
2010,08,15,01,53,21.80
2010,08,15,01,54,21.70
2010,08,15,01,55,21.60
2010,08,15,01,56,21.60
2010,08,15,01,57,21.60
2010,08,15,01,58,21.50
2010,08,15,01,59,21.40
2010,08,15,02,00,21.40
2010,08,15,02,01,21.30
2010,08,15,02,02,21.30
2010,08,15,02,03,21.30
2010,08,15,02,04,21.20
2010,08,15,02,05,21.20
2010,08,15,02,06,21.20
2010,08,15,02,07,21.10
2010,08,15,02,08,21.10
2010,08,15,02,09,21.10
2010,08,15,02,10,21.10
2010,08,15,02,11,21.00
2010,08,15,02,12,21.00
2010,08,15,02,13,21.10
2010,08,15,02,14,21.10
2010,08,15,02,15,21.10
2010,08,15,02,16,21.20
2010,08,15,02,17,21.20
2010,08,15,02,18,21.20
2010,08,15,02,19,21.20
2010,08,15,02,20,21.10
2010,08,15,02,21,21.00
2010,08,15,02,22,21.00
2010,08,15,02,23,20.90
2010,08,15,02,24,20.90
2010,08,15,02,25,20.90
2010,08,15,02,26,20.90
2010,08,15,02,27,20.90
2010,08,15,02,28,20.90
2010,08,15,02,29,20.90
2010,08,15,02,30,20.80
2010,08,15,02,31,20.80
2010,08,15,02,32,20.80
2010,08,15,02,33,20.70
2010,08,15,02,34,20.60
2010,08,15,02,35,20.50
2010,08,15,02,36,20.40
2010,08,15,02,37,20.30
2010,08,15,02,38,20.30
2010,08,15,02,39,20.20
2010,08,15,02,40,20.20
2010,08,15,02,41,20.10
2010,08,15,02,42,20.00
2010,08,15,02,43,20.00
2010,08,15,02,44,19.90
2010,08,15,02,45,19.90
2010,08,15,02,46,19.90
2010,08,15,02,47,19.90
2010,08,15,02,48,19.80
2010,08,15,02,49,19.80
2010,08,15,02,50,19.80
2010,08,15,02,51,19.70
2010,08,15,02,52,19.70
2010,08,15,02,53,19.60
2010,08,15,02,54,19.50
2010,08,15,02,55,19.50
2010,08,15,02,56,19.40
2010,08,15,02,57,19.30
2010,08,15,02,58,19.30
2010,08,15,02,59,19.20
2010,08,15,03,00,19.20
2010,08,15,03,01,19.10
2010,08,15,03,02,19.10
2010,08,15,03,03,19.00
2010,08,15,03,04,19.00
2010,08,15,03,05,18.90
2010,08,15,03,06,18.90
2010,08,15,03,07,18.90
2010,08,15,03,08,18.80
2010,08,15,03,09,18.80
2010,08,15,03,10,18.80
2010,08,15,03,11,18.70
2010,08,15,03,12,18.70
2010,08,15,03,13,18.70
2010,08,15,03,14,18.60
2010,08,15,03,15,18.60
2010,08,15,03,16,18.70
2010,08,15,03,17,18.70
2010,08,15,03,18,18.60
2010,08,15,03,19,18.60
2010,08,15,03,20,18.60
2010,08,15,03,21,18.60
2010,08,15,03,22,18.60
2010,08,15,03,23,18.60
2010,08,15,03,24,18.60
2010,08,15,03,25,18.60
2010,08,15,03,26,18.60
2010,08,15,03,27,18.60
2010,08,15,03,28,18.60
2010,08,15,03,29,18.60
2010,08,15,03,30,18.60
2010,08,15,03,31,18.60
2010,08,15,03,32,18.50
2010,08,15,03,33,18.50
2010,08,15,03,34,18.50
2010,08,15,03,35,18.50
2010,08,15,03,36,18.50
2010,08,15,03,37,18.60
2010,08,15,03,38,18.60
2010,08,15,03,39,18.60
2010,08,15,03,40,18.60
2010,08,15,03,41,18.60
2010,08,15,03,42,18.70
2010,08,15,03,43,18.70
2010,08,15,03,44,18.70
2010,08,15,03,45,18.70
2010,08,15,03,46,18.70
2010,08,15,03,47,18.70
2010,08,15,03,48,18.70
2010,08,15,03,49,18.70
2010,08,15,03,50,18.70
2010,08,15,03,51,18.60
2010,08,15,03,52,18.60
2010,08,15,03,53,18.60
2010,08,15,03,54,18.60
2010,08,15,03,55,18.60
2010,08,15,03,56,18.60
2010,08,15,03,57,18.60
2010,08,15,03,58,18.70
2010,08,15,03,59,18.70
2010,08,15,04,00,18.70
2010,08,15,04,01,18.80
2010,08,15,04,02,18.80
2010,08,15,04,03,18.80
2010,08,15,04,04,18.80
2010,08,15,04,05,18.90
2010,08,15,04,06,18.90
2010,08,15,04,07,18.90
2010,08,15,04,08,18.90
2010,08,15,04,09,18.90
2010,08,15,04,10,18.90
2010,08,15,04,11,18.90
2010,08,15,04,12,18.90
2010,08,15,04,13,18.90
2010,08,15,04,14,18.90
2010,08,15,04,15,18.90
2010,08,15,04,16,18.80
2010,08,15,04,17,18.80
2010,08,15,04,18,18.70
2010,08,15,04,19,18.70
2010,08,15,04,20,18.60
2010,08,15,04,21,18.50
2010,08,15,04,22,18.50
2010,08,15,04,23,18.40
2010,08,15,04,24,18.30
2010,08,15,04,25,18.30
2010,08,15,04,26,18.20
2010,08,15,04,27,18.20
2010,08,15,04,28,18.10
2010,08,15,04,29,18.10
2010,08,15,04,30,18.00
2010,08,15,04,31,18.00
2010,08,15,04,32,17.90
2010,08,15,04,33,17.90
2010,08,15,04,34,17.90
2010,08,15,04,35,17.80
2010,08,15,04,36,17.80
2010,08,15,04,37,17.80
2010,08,15,04,38,17.70
2010,08,15,04,39,17.70
2010,08,15,04,40,17.70
2010,08,15,04,41,17.60
2010,08,15,04,42,17.60
2010,08,15,04,43,17.60
2010,08,15,04,44,17.60
2010,08,15,04,45,17.60
2010,08,15,04,46,17.70
2010,08,15,04,47,17.70
2010,08,15,04,48,17.80
2010,08,15,04,49,17.80
2010,08,15,04,50,17.90
2010,08,15,04,51,17.90
2010,08,15,04,52,18.00
2010,08,15,04,53,18.10
2010,08,15,04,54,18.10
2010,08,15,04,55,18.20
2010,08,15,04,56,18.20
2010,08,15,04,57,18.30
2010,08,15,04,58,18.30
2010,08,15,04,59,18.40
2010,08,15,05,00,18.40
2010,08,15,05,01,18.50
2010,08,15,05,02,18.50
2010,08,15,05,03,18.60
2010,08,15,05,04,18.60
2010,08,15,05,05,18.70
2010,08,15,05,06,18.70
2010,08,15,05,07,18.70
2010,08,15,05,08,18.80
2010,08,15,05,09,18.80
2010,08,15,05,10,18.80
2010,08,15,05,11,18.70
2010,08,15,05,12,18.70
2010,08,15,05,13,18.70
2010,08,15,05,14,18.60
2010,08,15,05,15,18.60
2010,08,15,05,16,18.60
2010,08,15,05,17,18.50
2010,08,15,05,18,18.40
2010,08,15,05,19,18.40
2010,08,15,05,20,18.30
2010,08,15,05,21,18.30
2010,08,15,05,22,18.30
2010,08,15,05,23,18.30
2010,08,15,05,24,18.30
2010,08,15,05,25,18.30
2010,08,15,05,26,18.40
2010,08,15,05,27,18.50
2010,08,15,05,28,18.50
2010,08,15,05,29,18.70
2010,08,15,05,30,18.70
2010,08,15,05,31,18.80
2010,08,15,05,32,18.90
2010,08,15,05,33,19.00
2010,08,15,05,34,19.00
2010,08,15,05,35,19.10
2010,08,15,05,36,19.00
2010,08,15,05,37,19.00
2010,08,15,05,38,18.90
2010,08,15,05,39,18.80
2010,08,15,05,40,18.80
2010,08,15,05,41,18.70
2010,08,15,05,42,18.60
2010,08,15,05,43,18.60
2010,08,15,05,44,18.60
2010,08,15,05,45,18.50
2010,08,15,05,46,18.50
2010,08,15,05,47,18.50
2010,08,15,05,48,18.40
2010,08,15,05,49,18.40
2010,08,15,05,50,18.40
2010,08,15,05,51,18.40
2010,08,15,05,52,18.40
2010,08,15,05,53,18.30
2010,08,15,05,54,18.40
2010,08,15,05,55,18.40
2010,08,15,05,56,18.40
2010,08,15,05,57,18.40
2010,08,15,05,58,18.40
2010,08,15,05,59,18.40
2010,08,15,06,00,18.40
2010,08,15,06,01,18.40
2010,08,15,06,02,18.50
2010,08,15,06,03,18.50
2010,08,15,06,04,18.50
2010,08,15,06,05,18.50
2010,08,15,06,06,18.60
2010,08,15,06,07,18.60
2010,08,15,06,08,18.60
2010,08,15,06,09,18.60
2010,08,15,06,10,18.60
2010,08,15,06,11,18.60
2010,08,15,06,12,18.60
2010,08,15,06,13,18.60
2010,08,15,06,14,18.60
2010,08,15,06,15,18.60
2010,08,15,06,16,18.70
2010,08,15,06,17,18.70
2010,08,15,06,18,18.70
2010,08,15,06,19,18.70
2010,08,15,06,20,18.80
2010,08,15,06,21,18.80
2010,08,15,06,22,18.80
2010,08,15,06,23,18.90
2010,08,15,06,24,18.90
2010,08,15,06,25,18.90
2010,08,15,06,26,18.90
2010,08,15,06,27,19.00
2010,08,15,06,28,19.00
2010,08,15,06,29,19.10
2010,08,15,06,30,19.10
2010,08,15,06,31,19.10
2010,08,15,06,32,19.10
2010,08,15,06,33,19.10
2010,08,15,06,34,19.10
2010,08,15,06,35,19.10
2010,08,15,06,36,19.10
2010,08,15,06,37,19.20
2010,08,15,06,38,19.20
2010,08,15,06,39,19.20
2010,08,15,06,40,19.20
2010,08,15,06,41,19.20
2010,08,15,06,42,19.20
2010,08,15,06,43,19.30
2010,08,15,06,44,19.30
2010,08,15,06,45,19.30
2010,08,15,06,46,19.40
2010,08,15,06,47,19.40
2010,08,15,06,48,19.40
2010,08,15,06,49,19.50
2010,08,15,06,50,19.50
2010,08,15,06,51,19.60
2010,08,15,06,52,19.60
2010,08,15,06,53,19.60
2010,08,15,06,54,19.60
2010,08,15,06,55,19.60
2010,08,15,06,56,19.70
2010,08,15,06,57,19.70
2010,08,15,06,58,19.70
2010,08,15,06,59,19.70
2010,08,15,07,00,19.70
2010,08,15,07,01,19.70
2010,08,15,07,02,19.70
2010,08,15,07,03,19.70
2010,08,15,07,04,19.70
2010,08,15,07,05,19.70
2010,08,15,07,06,19.70
2010,08,15,07,07,19.70
2010,08,15,07,08,19.70
2010,08,15,07,09,19.60
2010,08,15,07,10,19.60
2010,08,15,07,11,19.60
2010,08,15,07,12,19.60
2010,08,15,07,13,19.60
2010,08,15,07,14,19.60
2010,08,15,07,15,19.60
2010,08,15,07,16,19.60
2010,08,15,07,17,19.60
2010,08,15,07,18,19.60
2010,08,15,07,19,19.60
2010,08,15,07,20,19.60
2010,08,15,07,21,19.60
2010,08,15,07,22,19.70
2010,08,15,07,23,19.70
2010,08,15,07,24,19.70
2010,08,15,07,25,19.70
2010,08,15,07,26,19.80
2010,08,15,07,27,19.80
2010,08,15,07,28,19.90
2010,08,15,07,29,19.90
2010,08,15,07,30,20.00
2010,08,15,07,31,20.00
2010,08,15,07,32,20.10
2010,08,15,07,33,20.20
2010,08,15,07,34,20.20
2010,08,15,07,35,20.20
2010,08,15,07,36,20.30
2010,08,15,07,37,20.30
2010,08,15,07,38,20.30
2010,08,15,07,39,20.30
2010,08,15,07,40,20.40
2010,08,15,07,41,20.40
2010,08,15,07,42,20.40
2010,08,15,07,43,20.50
2010,08,15,07,44,20.60
2010,08,15,07,45,20.60
2010,08,15,07,46,20.70
2010,08,15,07,47,20.80
2010,08,15,07,48,20.80
2010,08,15,07,49,20.90
2010,08,15,07,50,21.00
2010,08,15,07,51,21.10
2010,08,15,07,52,21.20
2010,08,15,07,53,21.30
2010,08,15,07,54,21.40
2010,08,15,07,55,21.50
2010,08,15,07,56,21.60
2010,08,15,07,57,21.70
2010,08,15,07,58,21.80
2010,08,15,07,59,22.00
2010,08,15,08,00,22.10
2010,08,15,08,01,22.20
2010,08,15,08,02,22.30
2010,08,15,08,03,22.40
2010,08,15,08,04,22.40
2010,08,15,08,05,22.60
2010,08,15,08,06,22.70
2010,08,15,08,07,22.80
2010,08,15,08,08,22.90
2010,08,15,08,09,23.00
2010,08,15,08,10,23.10
2010,08,15,08,11,23.10
2010,08,15,08,12,23.20
2010,08,15,08,13,23.20
2010,08,15,08,14,23.20
2010,08,15,08,15,23.20
2010,08,15,08,16,23.20
2010,08,15,08,17,23.30
2010,08,15,08,18,23.30
2010,08,15,08,19,23.30
2010,08,15,08,20,23.30
2010,08,15,08,21,23.40
2010,08,15,08,22,23.40
2010,08,15,08,23,23.50
2010,08,15,08,24,23.60
2010,08,15,08,25,23.60
2010,08,15,08,26,23.70
2010,08,15,08,27,23.70
2010,08,15,08,28,23.80
2010,08,15,08,29,23.90
2010,08,15,08,30,23.90
2010,08,15,08,31,24.00
2010,08,15,08,32,24.10
2010,08,15,08,33,24.20
2010,08,15,08,34,24.30
2010,08,15,08,35,24.40
2010,08,15,08,36,24.50
2010,08,15,08,37,24.60
2010,08,15,08,38,24.70
2010,08,15,08,39,24.80
2010,08,15,08,40,24.90
2010,08,15,08,41,25.00
2010,08,15,08,42,25.10
2010,08,15,08,43,25.10
2010,08,15,08,44,25.20
2010,08,15,08,45,25.20
2010,08,15,08,46,25.30
2010,08,15,08,47,25.30
2010,08,15,08,48,25.30
2010,08,15,08,49,25.30
2010,08,15,08,50,25.30
2010,08,15,08,51,25.30
2010,08,15,08,52,25.30
2010,08,15,08,53,25.30
2010,08,15,08,54,25.40
2010,08,15,08,55,25.40
2010,08,15,08,56,25.40
2010,08,15,08,57,25.50
2010,08,15,08,58,25.60
2010,08,15,08,59,25.70
2010,08,15,09,00,25.80
2010,08,15,09,01,25.80
2010,08,15,09,02,25.90
2010,08,15,09,03,25.90
2010,08,15,09,04,25.80
2010,08,15,09,05,25.80
2010,08,15,09,06,25.80
2010,08,15,09,07,25.80
2010,08,15,09,08,25.80
2010,08,15,09,09,25.80
2010,08,15,09,10,25.90
2010,08,15,09,11,25.90
2010,08,15,09,12,25.90
2010,08,15,09,13,26.00
2010,08,15,09,14,26.10
2010,08,15,09,15,26.20
2010,08,15,09,16,26.20
2010,08,15,09,17,26.30
2010,08,15,09,18,26.30
2010,08,15,09,19,26.30
2010,08,15,09,20,26.30
2010,08,15,09,21,26.30
2010,08,15,09,22,26.30
2010,08,15,09,23,26.20
2010,08,15,09,24,26.10
2010,08,15,09,25,26.00
2010,08,15,09,26,25.90
2010,08,15,09,27,25.80
2010,08,15,09,28,25.70
2010,08,15,09,29,25.60
2010,08,15,09,30,25.60
2010,08,15,09,31,25.50
2010,08,15,09,32,25.50
2010,08,15,09,33,25.40
2010,08,15,09,34,25.40
2010,08,15,09,35,25.40
2010,08,15,09,36,25.40
2010,08,15,09,37,25.40
2010,08,15,09,38,25.30
2010,08,15,09,39,25.30
2010,08,15,09,40,25.20
2010,08,15,09,41,25.10
2010,08,15,09,42,25.00
2010,08,15,09,43,24.90
2010,08,15,09,44,24.80
2010,08,15,09,45,24.70
2010,08,15,09,46,24.70
2010,08,15,09,47,24.60
2010,08,15,09,48,24.60
2010,08,15,09,49,24.60
2010,08,15,09,50,24.60
2010,08,15,09,51,24.70
2010,08,15,09,52,24.70
2010,08,15,09,53,24.80
2010,08,15,09,54,24.90
2010,08,15,09,55,24.90
2010,08,15,09,56,24.90
2010,08,15,09,57,25.00
2010,08,15,09,58,25.10
2010,08,15,09,59,25.10
2010,08,15,10,00,25.10
2010,08,15,10,01,25.20
2010,08,15,10,02,25.10
2010,08,15,10,03,25.10
2010,08,15,10,04,25.10
2010,08,15,10,05,25.10
2010,08,15,10,06,25.10
2010,08,15,10,07,25.00
2010,08,15,10,08,24.90
2010,08,15,10,09,24.90
2010,08,15,10,10,24.80
2010,08,15,10,11,24.80
2010,08,15,10,12,24.80
2010,08,15,10,13,24.90
2010,08,15,10,14,24.90
2010,08,15,10,15,25.00
2010,08,15,10,16,25.00
2010,08,15,10,17,25.00
2010,08,15,10,18,25.10
2010,08,15,10,19,25.10
2010,08,15,10,20,25.10
2010,08,15,10,21,25.20
2010,08,15,10,22,25.20
2010,08,15,10,23,25.20
2010,08,15,10,24,25.30
2010,08,15,10,25,25.30
2010,08,15,10,26,25.30
2010,08,15,10,27,25.30
2010,08,15,10,28,25.30
2010,08,15,10,29,25.20
2010,08,15,10,30,25.20
2010,08,15,10,31,25.20
2010,08,15,10,32,25.10
2010,08,15,10,33,25.10
2010,08,15,10,34,25.10
2010,08,15,10,35,25.10
2010,08,15,10,36,25.10
2010,08,15,10,37,25.00
2010,08,15,10,38,25.00
2010,08,15,10,39,25.00
2010,08,15,10,40,25.00
2010,08,15,10,41,25.00
2010,08,15,10,42,25.00
2010,08,15,10,43,24.90
2010,08,15,10,44,24.90
2010,08,15,10,45,24.90
2010,08,15,10,46,24.90
2010,08,15,10,47,24.80
2010,08,15,10,48,24.80
2010,08,15,10,49,24.70
2010,08,15,10,50,24.70
2010,08,15,10,51,24.70
2010,08,15,10,52,24.70
2010,08,15,10,53,24.70
2010,08,15,10,54,24.80
2010,08,15,10,55,24.90
2010,08,15,10,56,25.00
2010,08,15,10,57,25.00
2010,08,15,10,58,25.10
2010,08,15,10,59,25.20
2010,08,15,11,00,25.30
2010,08,15,11,01,25.30
2010,08,15,11,02,25.30
2010,08,15,11,03,25.30
2010,08,15,11,04,25.40
2010,08,15,11,05,25.40
2010,08,15,11,06,25.30
2010,08,15,11,07,25.30
2010,08,15,11,08,25.30
2010,08,15,11,09,25.20
2010,08,15,11,10,25.20
2010,08,15,11,11,25.10
2010,08,15,11,12,25.10
2010,08,15,11,13,25.00
2010,08,15,11,14,25.00
2010,08,15,11,15,25.00
2010,08,15,11,16,25.10
2010,08,15,11,17,25.10
2010,08,15,11,18,25.10
2010,08,15,11,19,25.10
2010,08,15,11,20,25.10
2010,08,15,11,21,25.10
2010,08,15,11,22,25.20
2010,08,15,11,23,25.20
2010,08,15,11,24,25.30
2010,08,15,11,25,25.40
2010,08,15,11,26,25.40
2010,08,15,11,27,25.50
2010,08,15,11,28,25.60
2010,08,15,11,29,25.70
2010,08,15,11,30,25.80
2010,08,15,11,31,25.90
2010,08,15,11,32,25.90
2010,08,15,11,33,26.00
2010,08,15,11,34,26.10
2010,08,15,11,35,26.20
2010,08,15,11,36,26.30
2010,08,15,11,37,26.40
2010,08,15,11,38,26.50
2010,08,15,11,39,26.60
2010,08,15,11,40,26.70
2010,08,15,11,41,26.70
2010,08,15,11,42,26.80
2010,08,15,11,43,26.90
2010,08,15,11,44,26.90
2010,08,15,11,45,27.00
2010,08,15,11,46,27.10
2010,08,15,11,47,27.20
2010,08,15,11,48,27.20
2010,08,15,11,49,27.20
2010,08,15,11,50,27.30
2010,08,15,11,51,27.30
2010,08,15,11,52,27.40
2010,08,15,11,53,27.40
2010,08,15,11,54,27.40
2010,08,15,11,55,27.40
2010,08,15,11,56,27.40
2010,08,15,11,57,27.40
2010,08,15,11,58,27.30
2010,08,15,11,59,27.20
2010,08,15,12,00,27.20
2010,08,15,12,01,27.20
2010,08,15,12,02,27.20
2010,08,15,12,03,27.30
2010,08,15,12,04,27.30
2010,08,15,12,05,27.40
2010,08,15,12,06,27.30
2010,08,15,12,07,27.30
2010,08,15,12,08,27.30
2010,08,15,12,09,27.20
2010,08,15,12,10,27.20
2010,08,15,12,11,27.20
2010,08,15,12,12,27.20
2010,08,15,12,13,27.20
2010,08,15,12,14,27.10
2010,08,15,12,15,27.10
2010,08,15,12,16,27.20
2010,08,15,12,17,27.20
2010,08,15,12,18,27.20
2010,08,15,12,19,27.20
2010,08,15,12,20,27.30
2010,08,15,12,21,27.30
2010,08,15,12,22,27.40
2010,08,15,12,23,27.40
2010,08,15,12,24,27.40
2010,08,15,12,25,27.50
2010,08,15,12,26,27.50
2010,08,15,12,27,27.60
2010,08,15,12,28,27.70
2010,08,15,12,29,27.70
2010,08,15,12,30,27.80
2010,08,15,12,31,27.90
2010,08,15,12,32,27.90
2010,08,15,12,33,27.90
2010,08,15,12,34,28.00
2010,08,15,12,35,28.10
2010,08,15,12,36,28.10
2010,08,15,12,37,28.20
2010,08,15,12,38,28.20
2010,08,15,12,39,28.20
2010,08,15,12,40,28.10
2010,08,15,12,41,28.00
2010,08,15,12,42,28.00
2010,08,15,12,43,27.90
2010,08,15,12,44,27.90
2010,08,15,12,45,27.80
2010,08,15,12,46,27.80
2010,08,15,12,47,27.80
2010,08,15,12,48,27.70
2010,08,15,12,49,27.70
2010,08,15,12,50,27.80
2010,08,15,12,51,27.80
2010,08,15,12,52,27.80
2010,08,15,12,53,27.90
2010,08,15,12,54,27.90
2010,08,15,12,55,27.90
2010,08,15,12,56,27.90
2010,08,15,12,57,27.90
2010,08,15,12,58,27.90
2010,08,15,12,59,27.90
2010,08,15,13,00,27.90
2010,08,15,13,01,27.90
2010,08,15,13,02,27.90
2010,08,15,13,03,27.90
2010,08,15,13,04,27.90
2010,08,15,13,05,28.00
2010,08,15,13,06,28.00
2010,08,15,13,07,28.00
2010,08,15,13,08,28.10
2010,08,15,13,09,28.10
2010,08,15,13,10,28.10
2010,08,15,13,11,28.10
2010,08,15,13,12,28.10
2010,08,15,13,13,28.10
2010,08,15,13,14,28.10
2010,08,15,13,15,28.10
2010,08,15,13,16,28.10
2010,08,15,13,17,28.10
2010,08,15,13,18,28.10
2010,08,15,13,19,28.10
2010,08,15,13,20,28.20
2010,08,15,13,21,28.20
2010,08,15,13,22,28.20
2010,08,15,13,23,28.20
2010,08,15,13,24,28.20
2010,08,15,13,25,28.20
2010,08,15,13,26,28.20
2010,08,15,13,27,28.20
2010,08,15,13,28,28.30
2010,08,15,13,29,28.30
2010,08,15,13,30,28.30
2010,08,15,13,31,28.40
2010,08,15,13,32,28.40
2010,08,15,13,33,28.40
2010,08,15,13,34,28.40
2010,08,15,13,35,28.50
2010,08,15,13,36,28.50
2010,08,15,13,37,28.50
2010,08,15,13,38,28.60
2010,08,15,13,39,28.70
2010,08,15,13,40,28.70
2010,08,15,13,41,28.70
2010,08,15,13,42,28.70
2010,08,15,13,43,28.70
2010,08,15,13,44,28.70
2010,08,15,13,45,28.70
2010,08,15,13,46,28.60
2010,08,15,13,47,28.60
2010,08,15,13,48,28.60
2010,08,15,13,49,28.60
2010,08,15,13,50,28.50
2010,08,15,13,51,28.40
2010,08,15,13,52,28.40
2010,08,15,13,53,28.40
2010,08,15,13,54,28.40
2010,08,15,13,55,28.40
2010,08,15,13,56,28.50
2010,08,15,13,57,28.60
2010,08,15,13,58,28.60
2010,08,15,13,59,28.70
2010,08,15,14,00,28.70
2010,08,15,14,01,28.80
2010,08,15,14,02,28.80
2010,08,15,14,03,28.80
2010,08,15,14,04,28.90
2010,08,15,14,05,28.90
2010,08,15,14,06,28.90
2010,08,15,14,07,29.00
2010,08,15,14,08,29.00
2010,08,15,14,09,29.20
2010,08,15,14,10,29.30
2010,08,15,14,11,29.30
2010,08,15,14,12,29.40
2010,08,15,14,13,29.40
2010,08,15,14,14,29.30
2010,08,15,14,15,29.40
2010,08,15,14,16,29.40
2010,08,15,14,17,29.40
2010,08,15,14,18,29.50
2010,08,15,14,19,29.50
2010,08,15,14,20,29.60
2010,08,15,14,21,29.60
2010,08,15,14,22,29.60
2010,08,15,14,23,29.60
2010,08,15,14,24,29.60
2010,08,15,14,25,29.60
2010,08,15,14,26,29.60
2010,08,15,14,27,29.70
2010,08,15,14,28,29.70
2010,08,15,14,29,29.70
2010,08,15,14,30,29.70
2010,08,15,14,31,29.70
2010,08,15,14,32,29.80
2010,08,15,14,33,29.80
2010,08,15,14,34,29.80
2010,08,15,14,35,29.70
2010,08,15,14,36,29.70
2010,08,15,14,37,29.80
2010,08,15,14,38,29.80
2010,08,15,14,39,29.80
2010,08,15,14,40,29.90
2010,08,15,14,41,29.90
2010,08,15,14,42,30.00
2010,08,15,14,43,30.10
2010,08,15,14,44,30.20
2010,08,15,14,45,30.30
2010,08,15,14,46,30.30
2010,08,15,14,47,30.40
2010,08,15,14,48,30.50
2010,08,15,14,49,30.50
2010,08,15,14,50,30.60
2010,08,15,14,51,30.60
2010,08,15,14,52,30.60
2010,08,15,14,53,30.60
2010,08,15,14,54,30.70
2010,08,15,14,55,30.80
2010,08,15,14,56,30.80
2010,08,15,14,57,30.80
2010,08,15,14,58,30.80
2010,08,15,14,59,30.80
2010,08,15,15,00,30.70
2010,08,15,15,01,30.80
2010,08,15,15,02,30.80
2010,08,15,15,03,30.80
2010,08,15,15,04,30.90
2010,08,15,15,05,30.90
2010,08,15,15,06,30.80
2010,08,15,15,07,30.70
2010,08,15,15,08,30.60
2010,08,15,15,09,30.60
2010,08,15,15,10,30.60
2010,08,15,15,11,30.60
2010,08,15,15,12,30.60
2010,08,15,15,13,30.50
2010,08,15,15,14,30.50
2010,08,15,15,15,30.40
2010,08,15,15,16,30.40
2010,08,15,15,17,30.30
2010,08,15,15,18,30.30
2010,08,15,15,19,30.20
2010,08,15,15,20,30.10
2010,08,15,15,21,30.00
2010,08,15,15,22,29.90
2010,08,15,15,23,29.80
2010,08,15,15,24,29.70
2010,08,15,15,25,29.60
2010,08,15,15,26,29.50
2010,08,15,15,27,29.50
2010,08,15,15,28,29.40
2010,08,15,15,29,29.40
2010,08,15,15,30,29.40
2010,08,15,15,31,29.40
2010,08,15,15,32,29.40
2010,08,15,15,33,29.40
2010,08,15,15,34,29.50
2010,08,15,15,35,29.60
2010,08,15,15,36,29.70
2010,08,15,15,37,29.80
2010,08,15,15,38,29.80
2010,08,15,15,39,29.80
2010,08,15,15,40,29.90
2010,08,15,15,41,29.90
2010,08,15,15,42,29.90
2010,08,15,15,43,30.00
2010,08,15,15,44,30.10
2010,08,15,15,45,30.10
2010,08,15,15,46,30.20
2010,08,15,15,47,30.30
2010,08,15,15,48,30.30
2010,08,15,15,49,30.40
2010,08,15,15,50,30.30
2010,08,15,15,51,30.30
2010,08,15,15,52,30.20
2010,08,15,15,53,30.20
2010,08,15,15,54,30.10
2010,08,15,15,55,30.10
2010,08,15,15,56,30.00
2010,08,15,15,57,30.00
2010,08,15,15,58,29.90
2010,08,15,15,59,29.90
2010,08,15,16,00,29.90
2010,08,15,16,01,29.90
2010,08,15,16,02,29.90
2010,08,15,16,03,29.90
2010,08,15,16,04,30.00
2010,08,15,16,05,30.10
2010,08,15,16,06,30.10
2010,08,15,16,07,30.20
2010,08,15,16,08,30.30
2010,08,15,16,09,30.40
2010,08,15,16,10,30.60
2010,08,15,16,11,30.70
2010,08,15,16,12,30.80
2010,08,15,16,13,30.90
2010,08,15,16,14,30.90
2010,08,15,16,15,30.90
2010,08,15,16,16,31.00
2010,08,15,16,17,31.00
2010,08,15,16,18,31.10
2010,08,15,16,19,31.10
2010,08,15,16,20,31.10
2010,08,15,16,21,31.10
2010,08,15,16,22,31.00
2010,08,15,16,23,31.00
2010,08,15,16,24,31.00
2010,08,15,16,25,30.90
2010,08,15,16,26,31.00
2010,08,15,16,27,31.00
2010,08,15,16,28,31.10
2010,08,15,16,29,31.10
2010,08,15,16,30,31.10
2010,08,15,16,31,31.00
2010,08,15,16,32,31.00
2010,08,15,16,33,31.00
2010,08,15,16,34,30.90
2010,08,15,16,35,30.90
2010,08,15,16,36,30.80
2010,08,15,16,37,30.70
2010,08,15,16,38,30.70
2010,08,15,16,39,30.60
2010,08,15,16,40,30.60
2010,08,15,16,41,30.60
2010,08,15,16,42,30.60
2010,08,15,16,43,30.60
2010,08,15,16,44,30.60
2010,08,15,16,45,30.60
2010,08,15,16,46,30.60
2010,08,15,16,47,30.50
2010,08,15,16,48,30.50
2010,08,15,16,49,30.40
2010,08,15,16,50,30.50
2010,08,15,16,51,30.50
2010,08,15,16,52,30.60
2010,08,15,16,53,30.60
2010,08,15,16,54,30.60
2010,08,15,16,55,30.60
2010,08,15,16,56,30.60
2010,08,15,16,57,30.60
2010,08,15,16,58,30.60
2010,08,15,16,59,30.60
2010,08,15,17,00,30.60
2010,08,15,17,01,30.70
2010,08,15,17,02,30.70
2010,08,15,17,03,30.70
2010,08,15,17,04,30.70
2010,08,15,17,05,30.70
2010,08,15,17,06,30.70
2010,08,15,17,07,30.80
2010,08,15,17,08,30.80
2010,08,15,17,09,30.90
2010,08,15,17,10,30.90
2010,08,15,17,11,30.90
2010,08,15,17,12,30.90
2010,08,15,17,13,31.00
2010,08,15,17,14,31.00
2010,08,15,17,15,31.00
2010,08,15,17,16,31.00
2010,08,15,17,17,31.00
2010,08,15,17,18,31.00
2010,08,15,17,19,31.00